When you browse on this site, cookies collect data to enhance your experience and personalize the content and advertising you see.
Visit our Privacy Policy to learn more. By continuing to use the site, you agree to this use of cookies and data.
  • In Latvia
  • List of Countries
  • For 7 days
  • Water Temperature
  • Satellite Maps
  • Weather Map
  • Weather Widgets
  • user-avatar
    Login

    Hourly Weather Shkoder

    Today, 20 July, Saturday

    Time Temperature Precipitation Wind Pressure Humidity
    00:00 +21°C° 0 mm 1 mps 741 mmHg 69%
    01:00 +21°C° 0 mm 1 mps 741 mmHg 68%
    02:00 +21°C° 0 mm 1 mps 741 mmHg 68%
    03:00 +21°C° 0 mm 1 mps 741 mmHg 67%
    04:00 +19°C° 0 mm 2 mps 741 mmHg 67%
    05:00 +22°C° 0 mm 1 mps 742 mmHg 63%
    06:00 +24°C° 0 mm 1 mps 742 mmHg 59%
    07:00 +26°C° 0 mm 1 mps 742 mmHg 56%
    08:00 +27°C° 0 mm 1 mps 742 mmHg 51%
    09:00 +29°C° 0 mm 1 mps 742 mmHg 46%
    10:00 +31°C° 0 mm 1 mps 742 mmHg 41%
    11:00 +32°C° 0 mm 1 mps 742 mmHg 39%
    12:00 +32°C° 0 mm 2 mps 742 mmHg 36%
    13:00 +34°C° 0 mm 2 mps 742 mmHg 34%
    14:00 +33°C° 0 mm 3 mps 742 mmHg 35%
    15:00 +33°C° 0 mm 3 mps 742 mmHg 37%
    16:00 +33°C° 0 mm 3 mps 742 mmHg 38%
    17:00 +30°C° 0 mm 2 mps 742 mmHg 44%
    18:00 +27°C° 0 mm 1 mps 742 mmHg 50%
    19:00 +25°C° 0 mm 1 mps 742 mmHg 56%
    20:00 +25°C° 0 mm 1 mps 742 mmHg 57%
    21:00 +24°C° 0 mm 1 mps 743 mmHg 59%
    22:00 +23°C° 0 mm 1 mps 743 mmHg 60%
    23:00 +23°C° 0 mm 1 mps 743 mmHg 59%

    Tomorrow, 21 July, Sunday

    Time Temperature Precipitation Wind Pressure Humidity
    00:00 +23°C° 0 mm 1 mps 743 mmHg 58%
    01:00 +22°C° 0 mm 1 mps 743 mmHg 57%
    02:00 +22°C° 0 mm 1 mps 743 mmHg 57%
    03:00 +22°C° 0 mm 1 mps 743 mmHg 57%
    04:00 +22°C° 0 mm 1 mps 742 mmHg 57%
    05:00 +24°C° 0 mm 1 mps 743 mmHg 54%
    06:00 +25°C° 0 mm 1 mps 743 mmHg 51%
    07:00 +25°C° 0 mm 0 mps 743 mmHg 48%
    08:00 +29°C° 0 mm 1 mps 743 mmHg 45%
    09:00 +30°C° 0 mm 1 mps 743 mmHg 41%
    10:00 +32°C° 0 mm 1 mps 743 mmHg 38%
    11:00 +34°C° 0 mm 2 mps 743 mmHg 37%
    12:00 +34°C° 0 mm 2 mps 743 mmHg 36%
    13:00 +35°C° 0 mm 3 mps 743 mmHg 35%
    14:00 +34°C° 0 mm 3 mps 743 mmHg 37%
    15:00 +34°C° 0 mm 2 mps 743 mmHg 40%
    16:00 +32°C° 0 mm 2 mps 743 mmHg 42%
    17:00 +30°C° 0 mm 2 mps 743 mmHg 47%
    18:00 +29°C° 0 mm 1 mps 742 mmHg 53%
    19:00 +27°C° 0 mm 1 mps 742 mmHg 58%
    20:00 +26°C° 0 mm 1 mps 743 mmHg 60%
    21:00 +25°C° 0 mm 1 mps 743 mmHg 61%
    22:00 +25°C° 0 mm 1 mps 743 mmHg 62%
    23:00 +25°C° 0 mm 1 mps 743 mmHg 62%

    Day after tomorrow, 22 July, Monday

    Time Temperature Precipitation Wind Pressure Humidity
    00:00 +25°C° 0 mm 1 mps 743 mmHg 61%
    01:00 +24°C° 0 mm 2 mps 743 mmHg 60%
    02:00 +24°C° 0 mm 2 mps 743 mmHg 60%
    03:00 +24°C° 0 mm 2 mps 743 mmHg 59%
    04:00 +24°C° 0 mm 2 mps 743 mmHg 58%
    05:00 +25°C° 0 mm 2 mps 743 mmHg 56%
    06:00 +27°C° 0 mm 1 mps 743 mmHg 53%
    07:00 +28°C° 0 mm 1 mps 743 mmHg 51%
    08:00 +30°C° 0 mm 2 mps 743 mmHg 46%
    09:00 +32°C° 0 mm 2 mps 743 mmHg 40%
    10:00 +34°C° 0 mm 2 mps 743 mmHg 35%
    11:00 +35°C° 0 mm 2 mps 743 mmHg 34%
    12:00 +36°C° 0 mm 2 mps 743 mmHg 32%
    13:00 +36°C° 0 mm 2 mps 743 mmHg 31%
    14:00 +36°C° 0 mm 2 mps 743 mmHg 31%
    15:00 +36°C° 0 mm 2 mps 743 mmHg 32%
    16:00 +36°C° 0 mm 2 mps 742 mmHg 33%
    17:00 +34°C° 0 mm 2 mps 742 mmHg 39%
    18:00 +31°C° 0 mm 2 mps 742 mmHg 45%
    19:00 +29°C° 0 mm 2 mps 742 mmHg 51%
    20:00 +28°C° 0 mm 2 mps 742 mmHg 55%
    21:00 +27°C° 0 mm 3 mps 742 mmHg 60%
    22:00 +26°C° 0 mm 3 mps 743 mmHg 64%
    23:00 +25°C° 0 mm 3 mps 742 mmHg 66%

    23 July, Tuesday

    Time Temperature Precipitation Wind Pressure Humidity
    00:00 +24°C° 0 mm 3 mps 742 mmHg 69%
    01:00 +22°C° 0 mm 3 mps 742 mmHg 72%
    02:00 +22°C° 0 mm 3 mps 742 mmHg 72%
    03:00 +21°C° 0 mm 3 mps 742 mmHg 73%
    04:00 +20°C° 0 mm 3 mps 741 mmHg 73%
    05:00 +22°C° 0 mm 3 mps 741 mmHg 68%
    06:00 +24°C° 0 mm 3 mps 741 mmHg 63%
    07:00 +26°C° 0 mm 3 mps 741 mmHg 58%
    08:00 +27°C° 0 mm 3 mps 741 mmHg 50%
    09:00 +29°C° 0 mm 3 mps 741 mmHg 43%
    10:00 +31°C° 0 mm 3 mps 741 mmHg 36%
    11:00 +31°C° 0 mm 3 mps 741 mmHg 34%
    12:00 +33°C° 0 mm 3 mps 740 mmHg 32%
    13:00 +34°C° 0 mm 3 mps 740 mmHg 30%
    14:00 +34°C° 0 mm 3 mps 740 mmHg 31%
    15:00 +34°C° 0 mm 3 mps 740 mmHg 31%
    16:00 +34°C° 0 mm 3 mps 740 mmHg 32%
    17:00 +32°C° 0 mm 4 mps 740 mmHg 37%
    18:00 +29°C° 0 mm 4 mps 740 mmHg 42%
    19:00 +27°C° 0 mm 4 mps 739 mmHg 47%
    20:00 +26°C° 0 mm 4 mps 740 mmHg 50%
    21:00 +25°C° 0 mm 4 mps 740 mmHg 53%
    22:00 +23°C° 0 mm 4 mps 740 mmHg 55%
    23:00 +22°C° 0 mm 4 mps 740 mmHg 58%

    24 July, Wednesday

    Time Temperature Precipitation Wind Pressure Humidity
    00:00 +22°C° 0 mm 4 mps 740 mmHg 61%
    01:00 +21°C° 0 mm 3 mps 740 mmHg 64%
    02:00 +21°C° 0 mm 3 mps 740 mmHg 66%
    03:00 +20°C° 0 mm 3 mps 739 mmHg 68%
    04:00 +20°C° 0 mm 3 mps 739 mmHg 70%
    05:00 +21°C° 0 mm 3 mps 739 mmHg 66%
    06:00 +23°C° 0 mm 4 mps 739 mmHg 61%
    07:00 +25°C° 0 mm 4 mps 740 mmHg 56%
    08:00 +27°C° 0 mm 4 mps 740 mmHg 51%
    09:00 +28°C° 0 mm 4 mps 740 mmHg 46%
    10:00 +30°C° 0 mm 4 mps 740 mmHg 41%
    11:00 +30°C° 0 mm 4 mps 740 mmHg 39%
    12:00 +32°C° 0 mm 4 mps 740 mmHg 37%
    13:00 +33°C° 0 mm 4 mps 740 mmHg 35%
    14:00 +33°C° 0 mm 4 mps 739 mmHg 35%
    15:00 +33°C° 0 mm 4 mps 739 mmHg 35%
    16:00 +33°C° 0 mm 4 mps 739 mmHg 34%
    17:00 +30°C° 0 mm 3 mps 739 mmHg 39%
    18:00 +29°C° 0 mm 3 mps 739 mmHg 44%
    19:00 +27°C° 0 mm 3 mps 740 mmHg 48%
    20:00 +26°C° 0 mm 3 mps 740 mmHg 51%
    21:00 +25°C° 0 mm 4 mps 740 mmHg 54%
    22:00 +23°C° 0 mm 4 mps 741 mmHg 58%
    23:00 +22°C° 0 mm 4 mps 741 mmHg 61%

    25 July, Thursday

    Time Temperature Precipitation Wind Pressure Humidity
    00:00 +21°C° 0 mm 3 mps 740 mmHg 64%
    01:00 +21°C° 0 mm 3 mps 740 mmHg 68%
    02:00 +20°C° 0 mm 3 mps 740 mmHg 69%
    03:00 +20°C° 0 mm 3 mps 740 mmHg 70%
    04:00 +20°C° 0 mm 3 mps 740 mmHg 71%
    05:00 +21°C° 0 mm 3 mps 741 mmHg 66%
    06:00 +24°C° 0 mm 3 mps 741 mmHg 61%
    07:00 +26°C° 0 mm 3 mps 741 mmHg 56%
    08:00 +27°C° 0 mm 3 mps 741 mmHg 50%
    09:00 +29°C° 0 mm 3 mps 741 mmHg 45%
    10:00 +31°C° 0 mm 3 mps 741 mmHg 39%
    11:00 +32°C° 0 mm 2 mps 741 mmHg 36%
    12:00 +34°C° 0 mm 2 mps 741 mmHg 34%
    13:00 +35°C° 0 mm 2 mps 741 mmHg 31%
    14:00 +35°C° 0 mm 2 mps 741 mmHg 31%
    15:00 +35°C° 0 mm 2 mps 741 mmHg 31%
    16:00 +35°C° 0 mm 2 mps 740 mmHg 32%
    17:00 +32°C° 0 mm 2 mps 740 mmHg 38%
    18:00 +29°C° 0 mm 1 mps 741 mmHg 45%
    19:00 +27°C° 0 mm 1 mps 741 mmHg 52%
    20:00 +26°C° 0 mm 1 mps 741 mmHg 54%
    21:00 +25°C° 0 mm 2 mps 741 mmHg 56%
    22:00 +24°C° 0 mm 2 mps 741 mmHg 59%
    23:00 +24°C° 0 mm 2 mps 741 mmHg 59%
    Show more